Regional Weather Roundup
Issued by NWS Raleigh/Durham, NC

Home | Current Version | Previous Version | Text Only | Print | Product List | Glossary On
Versions: 1 2 3 4 5 6 7 8 9 10 11 12 13 14 15 16 17 18 19 20 21 22 23 24 25 26 27 28 29 30 31 32 33 34 35 36 37 38 39 40 41 42 43 44 45 46 47 48 49 50
000
ASUS42 KRAH 271710
RWRRAH
NORTH CAROLINA WEATHER ROUNDUP
NATIONAL WEATHER SERVICE RALEIGH NC
100 PM EDT SAT MAY 27 2017

NOTE: "FAIR" INDICATES FEW OR NO CLOUDS BELOW 12,000 FEET WITH NO
SIGNIFICANT WEATHER AND/OR OBSTRUCTIONS TO VISIBILITY.

NCZ001-053-055-056-065-067-271800-
WESTERN NORTH CAROLINA

CITY           SKY/WX    TMP DP  RH WIND       PRES   REMARKS
ASHEVILLE      PTSUNNY   78  57  48 VRB5      30.06R
JEFFERSON      PTSUNNY   73  59  62 W10       30.06F
MORGANTON      PTSUNNY   82  57  42 S8        30.02S
HICKORY        MOSUNNY   83  63  50 S12       29.97S
RUTHERFORDTON  PTSUNNY   83  63  49 W7        29.99F
MOUNT AIRY     SUNNY     84  64  50 W6        29.96F
BOONE          MOSUNNY   73  55  53 W15G22    30.08S
$$

NCZ021-022-025-041-071-084-088-271800-
CENTRAL NORTH CAROLINA

CITY           SKY/WX    TMP DP  RH WIND       PRES   REMARKS
CHARLOTTE      PTSUNNY   85  65  51 W8        29.97F
GREENSBORO     MOSUNNY   83  65  54 SW14G20   29.94F
WINSTON-SALEM  SUNNY     84  60  44 VRB7G16   29.95F
RALEIGH-DURHAM MOSUNNY   85  67  54 SW7       29.93F
FORT BRAGG     SUNNY     86  64  46 SW7       29.93F
FAYETTEVILLE   SUNNY     88  65  46 SW8       29.94S
BURLINGTON     MOSUNNY   86  63  45 SW9       29.92F
LAURINBURG     SUNNY     87  67  51 W9        29.95F
$$

NCZ011-015-027-028-043-044-047-080-103-271800-
NORTHEASTERN NORTH CAROLINA

CITY           SKY/WX    TMP DP  RH WIND       PRES   REMARKS
ROCKY MT-WILSO SUNNY     86  64  47 SW7       29.92F
GREENVILLE     SUNNY     86  63  45 SW3       29.94F
WASHINGTON     SUNNY     84  64  50 NW5       29.92F
ELIZABETH CITY MOSUNNY   82  66  58 SW8       29.91F
MANTEO         SUNNY     82  62  50 W6        29.91F
CAPE HATTERAS  SUNNY     81  69  67 SW12      29.95S
$$

NCZ078-087-090-091-093-098-101-271800-
SOUTHEASTERN NORTH CAROLINA

CITY           SKY/WX    TMP DP  RH WIND       PRES   REMARKS
LUMBERTON      SUNNY     87  64  46 W14       29.94F
GOLDSBORO      NOT AVBL
KINSTON        SUNNY     86  61  42 CALM      29.93F
KENANSVILLE    SUNNY     86  66  51 W8        29.93F
NEW BERN       SUNNY     87  65  47 W10       29.93F
CHERRY POINT   SUNNY     87  63  44 SW14      29.94F
BEAUFORT       SUNNY     81  67  62 SW16      29.95F
JACKSONVILLE   NOT AVBL
WILMINGTON     MOSUNNY   86  66  51 SW8       29.94F
$$




USA.gov is the U.S. government's official web portal to all federal, state and local government web resources and services.